STARLINK-3744, 52304

Orbit data source: Space-Track

STARLINK-3744, 52304 is a payload satellite owned by SpaceX/Seattle (US) in LEO that was launched on Thu, 21 Apr 2022 UTC via an FALCON 9 launch vehicle from the Air Force Eastern Test Range (AFETR). Payload-class satellites include a variety of spacecraft equipped with specific instruments for various scientific and technological missions. These include communications satellites like Starlink; space stations such as the ISS; scientific satellites like the Hubble; Earth observation satellites from companies like Planet Labs, Umbra, and HawkEye 360; GPS; miniature CubeSats for education and research; and military/defense satellites.

Loading next visibility...
Identifier
52304, 2022-041AV
Orbit
LEO
Country
Flag of USUS
Related business
Manufacturer
SpaceX/Seattle
Mission
Operational Commercial Communications
Bus & Motor
STARLINK, Unknown motor
Mass
297 kg wet, ~275 kg dry
Launch date (UTC)
2022-04-21 (4 years ago)
Launch vehicle
FALCON 9
Launch site
Air Force Eastern Test Range (AFETR)
Object type
Payload
Rocket body
Debris
Shape & HBR
Box + 1 Pan, 10.1 m
Radar Cross Section
11.087 m², Large (>1 m²)

Expand to show TLE details & history
Last TLE update: 17 hours ago

TLE from 17 hours ago
0 STARLINK-3744
1 52304U 22041AV  26129.84967273 -.00000001  00000-0  18013-4 0  9998
2 52304  53.2163 174.5642 0001121  88.4383 271.6737 15.08838055223872
Epoch: 2026-05-09T20:23Z
TLE epoch observation values (Epoch: 2026-05-09T20:23:31.723Z)
Latitude
-0.00009°
Longitude
1.02076°
Altitude
540.624 km
Speed
7.593 km/s
True Right ascension
11h 38m 15s
True Declination
0° 00' 00"
Sunlit
Object was in full shadow at epoch
Visualization orbit readout
Latitude
Unknown
Longitude
Unknown
Altitude
Unknown
Speed
Unknown
Apparent Right ascension
Unknown
Apparent Declination
Unknown
Sunlit
N/A
Visualization observer readout
Local Sidereal Time
21:22:16
Azimuth
Unknown
Elevation
Unknown
Doppler factor
Unknown
Orbital elements
Apogee altitude
540.77 km
Perigee altitude
539.219 km
Semi-major axis
6,918.131 km
Eccentricity
0.00011
Inclination
53.2163°
RAAN
174.5642°
Arg. of periapsis
88.4383°
True anomaly
271.66086°
Mean anomaly
271.6737°
Eccentric anomaly
271.66728°
Mean motion
3.7719 °/min
Orbital period
95.44 mins
BSTAR
0.000018013
Loading maneuver chart data...
Computing Atmospheric mass density...
Loading historical data...
Loading historical data...
Loading historical data...
Loading historical data...
Loading historical data...
Loading historical data...
Loading historical data...

Documentation

Showing up to 5 results
|